Change the Weather History Date:

Friday, January 4, 2013

  Actual Average Record
Temperature  
Mean Temperature 16 °F -  
Max Temperature 30 °F 44 °F 58 °F (1981)
Min Temperature 3 °F 25 °F -5 °F (1967)
Degree Days  
Heating Degree Days 48    
Moisture  
Dew Point 6 °F    
Average Humidity 65    
Maximum Humidity 85    
Minimum Humidity 34    
Precipitation  
Precipitation 0.00 in - - ()
Sea Level Pressure  
Sea Level Pressure 30.24 in    
Wind  
Wind Speed 1 mph (North)    
Max Wind Speed 8 mph    
Max Gust Speed -    
Visibility 10 miles    
Events      
Averages and records for this station are not official NWS values.
T = Trace of Precipitation, MM = Missing Value Source: NWS Daily Summary

Daily Weather History Graph

Daily Weather History Graph

Search for Another Location

Airport or City:

Trip Planner

Search our weather history database for the weather conditions in past years. The results will help you decide how hot, cold, wet, or windy it might be!

Date:

Astronomy

Jan. 04, 2013 Rise Set
Actual Time 7:26 AM MST 5:23 PM MST
Civil Twilight 6:58 AM MST 5:51 PM MST
Nautical Twilight 6:27 AM MST 6:22 PM MST
Astronomical Twilight 5:57 AM MST 6:53 PM MST
Moon No Moon Rise 11:31 AM MST (1/4)
Length of Visible Light 10h 52m
Length of Day
9h 57m
Waning Gibbous, 54% of the Moon is Illuminated
Jan 4
Waning Gibbous
Jan 4
Last Quarter
Jan 11
New
Jan 18
First Quarter
Jan 26
Full

Hourly Weather History & Observations

Time (MST) Temp. Windchill Dew Point Humidity Pressure Visibility Wind Dir Wind Speed Gust Speed Precip Events Conditions
12:15 AM 6.8 °F - 1.4 °F 79% 30.25 in 10.0 mi Calm Calm - N/A   Clear
12:35 AM 6.8 °F - 1.4 °F 79% 30.25 in 10.0 mi Calm Calm - N/A   Clear
12:55 AM 6.8 °F - 1.4 °F 79% 30.24 in 10.0 mi Calm Calm - N/A   Clear
1:15 AM 6.8 °F - 1.4 °F 79% 30.24 in 10.0 mi Calm Calm - N/A   Clear
1:35 AM 6.8 °F - 1.4 °F 79% 30.24 in 10.0 mi Calm Calm - N/A   Clear
1:55 AM 6.8 °F - 1.4 °F 79% 30.24 in 10.0 mi Calm Calm - N/A   Clear
2:15 AM 5.0 °F - 1.4 °F 85% 30.24 in 10.0 mi Calm Calm - N/A   Clear
4:35 AM 6.8 °F - 1.4 °F 79% 30.24 in 10.0 mi Calm Calm - N/A   Clear
4:55 AM 3.2 °F - -0.4 °F 85% 30.24 in 10.0 mi Calm Calm - N/A   Clear
5:15 AM 3.2 °F - -0.4 °F 85% 30.24 in 10.0 mi Calm Calm - N/A   Clear
5:35 AM 5.0 °F -2.1 °F -0.4 °F 78% 30.24 in 10.0 mi ESE 3.5 mph - N/A   Clear
5:55 AM 5.0 °F - -0.4 °F 78% 30.24 in 10.0 mi Calm Calm - N/A   Clear
6:15 AM 3.2 °F - -0.4 °F 85% 30.25 in 10.0 mi Calm Calm - N/A   Clear
6:35 AM 3.2 °F - -0.4 °F 85% 30.25 in 8.0 mi Calm Calm - N/A   Clear
6:55 AM 3.2 °F - -0.4 °F 85% 30.25 in 10.0 mi Calm Calm - N/A   Clear
7:15 AM 3.2 °F - -0.4 °F 85% 30.26 in 9.0 mi Calm Calm - N/A   Clear
7:35 AM 3.2 °F - -0.4 °F 85% 30.26 in 10.0 mi Calm Calm - N/A   Clear
7:55 AM 3.2 °F - -0.4 °F 85% 30.27 in 10.0 mi Calm Calm - N/A   Clear
8:15 AM 6.8 °F - 1.4 °F 79% 30.28 in 10.0 mi Calm Calm - N/A   Clear
8:35 AM 10.4 °F - 6.8 °F 85% 30.28 in 5.0 mi Calm Calm - N/A   Haze
8:55 AM 12.2 °F - 6.8 °F 79% 30.29 in 10.0 mi Calm Calm - N/A   Clear
9:15 AM 14.0 °F 8.2 °F 8.6 °F 79% 30.29 in 10.0 mi NNE 3.5 mph - N/A   Clear
9:35 AM 14.0 °F - 8.6 °F 79% 30.29 in 10.0 mi Calm Calm - N/A   Clear
9:55 AM 15.8 °F - 10.4 °F 79% 30.29 in 10.0 mi Calm Calm - N/A   Clear
10:15 AM 17.6 °F - 12.2 °F 79% 30.29 in 10.0 mi Calm Calm - N/A   Clear
10:35 AM 19.4 °F - 12.2 °F 74% 30.29 in 10.0 mi Calm Calm - N/A   Clear
10:55 AM 23.0 °F - 12.2 °F 63% 30.28 in 10.0 mi Calm Calm - N/A   Clear
11:15 AM 23.0 °F 18.4 °F 12.2 °F 63% 30.27 in 10.0 mi NNE 3.5 mph - N/A   Clear
11:35 AM 24.8 °F 16.9 °F 12.2 °F 59% 30.26 in 10.0 mi North 6.9 mph - N/A   Clear
11:55 AM 26.6 °F 18.2 °F 12.2 °F 55% 30.24 in 10.0 mi North 8.1 mph - N/A   Clear
12:15 PM 26.6 °F 20.0 °F 10.4 °F 51% 30.23 in 10.0 mi North 5.8 mph - N/A   Clear
12:35 PM 26.6 °F 19.1 °F 10.4 °F 51% 30.22 in 10.0 mi North 6.9 mph - N/A   Clear
12:55 PM 26.6 °F 19.1 °F 10.4 °F 51% 30.22 in 10.0 mi North 6.9 mph - N/A   Clear
1:15 PM 26.6 °F 20.0 °F 10.4 °F 51% 30.21 in 10.0 mi NNW 5.8 mph - N/A   Clear
1:35 PM 28.4 °F 21.2 °F 10.4 °F 47% 30.20 in 10.0 mi North 6.9 mph - N/A   Clear
1:55 PM 28.4 °F 20.4 °F 8.6 °F 43% 30.20 in 10.0 mi North 8.1 mph - N/A   Clear
2:15 PM 28.4 °F 21.2 °F 8.6 °F 43% 30.20 in 10.0 mi North 6.9 mph - N/A   Clear
2:35 PM 28.4 °F 23.3 °F 8.6 °F 43% 30.20 in 10.0 mi NW 4.6 mph - N/A   Clear
2:55 PM 30.2 °F 25.4 °F 6.8 °F 37% 30.20 in 10.0 mi NW 4.6 mph - N/A   Clear
3:15 PM 30.2 °F 25.4 °F 6.8 °F 37% 30.21 in 10.0 mi NNW 4.6 mph - N/A   Clear
3:35 PM 30.2 °F 25.4 °F 6.8 °F 37% 30.21 in 10.0 mi North 4.6 mph - N/A   Clear
3:55 PM 30.2 °F 26.7 °F 6.8 °F 37% 30.21 in 10.0 mi North 3.5 mph - N/A   Clear
4:15 PM 30.2 °F - 5.0 °F 34% 30.21 in 10.0 mi Calm Calm - N/A   Clear
4:35 PM 30.2 °F - 5.0 °F 34% 30.21 in 10.0 mi Calm Calm - N/A   Clear
4:55 PM 28.4 °F - 5.0 °F 37% 30.21 in 10.0 mi Calm Calm - N/A   Clear
5:15 PM 28.4 °F - 6.8 °F 40% 30.21 in 10.0 mi Calm Calm - N/A   Clear
5:35 PM 26.6 °F 22.6 °F 6.8 °F 43% 30.21 in 10.0 mi NNE 3.5 mph - N/A   Clear
5:55 PM 24.8 °F 20.5 °F 6.8 °F 46% 30.22 in 10.0 mi NNW 3.5 mph - N/A   Clear
6:15 PM 24.8 °F 20.5 °F 6.8 °F 46% 30.22 in 10.0 mi NNW 3.5 mph - N/A   Clear
6:35 PM 23.0 °F - 6.8 °F 50% 30.23 in 10.0 mi Calm Calm - N/A   Clear
6:55 PM 19.4 °F 14.3 °F 8.6 °F 63% 30.22 in 10.0 mi East 3.5 mph - N/A   Clear
7:15 PM 19.4 °F - 8.6 °F 63% 30.23 in 10.0 mi Calm Calm - N/A   Clear
7:35 PM 19.4 °F - 8.6 °F 63% 30.23 in 10.0 mi Calm Calm - N/A   Clear
7:55 PM 17.6 °F - 8.6 °F 68% 30.24 in 10.0 mi Calm Calm - N/A   Clear
8:15 PM 17.6 °F - 8.6 °F 68% 30.24 in 10.0 mi Calm Calm - N/A   Clear
8:35 PM 15.8 °F 10.2 °F 6.8 °F 68% 30.24 in 10.0 mi South 3.5 mph - N/A   Clear
8:55 PM 14.0 °F 5.1 °F 6.8 °F 73% 30.24 in 10.0 mi South 5.8 mph - N/A   Clear
9:15 PM 15.8 °F 8.6 °F 6.8 °F 68% 30.25 in 10.0 mi South 4.6 mph - N/A   Clear
9:35 PM 14.0 °F 6.5 °F 6.8 °F 73% 30.25 in 10.0 mi South 4.6 mph - N/A   Clear
9:55 PM 14.0 °F 6.5 °F 6.8 °F 73% 30.26 in 10.0 mi South 4.6 mph - N/A   Clear
10:15 PM 14.0 °F 6.5 °F 5.0 °F 67% 30.26 in 10.0 mi South 4.6 mph - N/A   Clear
10:35 PM 14.0 °F 6.5 °F 5.0 °F 67% 30.26 in 10.0 mi South 4.6 mph - N/A   Clear
10:55 PM 12.2 °F 4.3 °F 3.2 °F 67% 30.26 in 10.0 mi South 4.6 mph - N/A   Clear
11:15 PM 12.2 °F 6.1 °F 3.2 °F 67% 30.27 in 10.0 mi South 3.5 mph - N/A   Clear
11:35 PM 14.0 °F - 1.4 °F 57% 30.27 in 10.0 mi Calm Calm - N/A   Clear
11:55 PM 12.2 °F - 3.2 °F 67% 30.26 in 10.0 mi Calm Calm - N/A   Clear